Tracking 19908 objects as of 18-Oct-2019
HD Live streaming from Space Station
objects crossing your sky now

DELTA 1 DEB

Track DELTA 1 DEB now!
10-day predictions


NORAD ID: 13564
Int'l Code: 1978-026FB
Perigee: 797.3 km
Apogee: 1,102.2 km
Inclination: 98.8 °
Period: 103.9 minutes
Semi major axis: 7320 km
RCS: 0.0124 m2 (small)
Launch date: March 5, 1978
Source: United States (US)
Launch site: AIR FORCE WESTERN TEST RANGE (AFWTR)

Note: This is SATELLITE DEBRIS
aabbcc
Your satellite tracking list
Your tracking list is empty




NASA's NSSDC Master Catalog

Two Line Element Set (TLE):
1 13564U 78026FB  19290.59309723 -.00000018  00000-0  15469-4 0  9990
2 13564  98.8020 335.2194 0208266 106.8609  47.8986 13.86017912883480
Source of the keplerian elements: AFSPC